Regional Weather Roundup
Issued by NWS

Home | Current Version | Previous Version | Graphics & Text | Print | Product List | Glossary On
Versions: 1 2 3 4 5 6 7 8 9 10 11 12 13 14 15 16 17 18 19 20 21 22 23 24 25 26 27 28 29 30 31 32 33 34 35 36 37 38 39 40 41 42 43 44 45 46 47 48 49 50
000
ASUS43 KDMX 191201
RWRIA

WEATHER ROUNDUP FOR IOWA
NATIONAL WEATHER SERVICE DES MOINES IA
600 AM CST SUN NOV 19 2017

NOTE: "FAIR" INDICATES FEW OR NO CLOUDS BELOW 12,000 FEET WITH NO
SIGNIFICANT WEATHER AND/OR OBSTRUCTIONS TO VISIBILITY.

* - THESE STATIONS ARE NOT NWS STATIONS...THUS NOT UNDER NWS
QUALITY CONTROL.  THEY ALSO DO NOT REPORT WEATHER SUCH
AS PRECIPITATION OR FOG.

IAZ001>003-012>014-020>022-031>034-043>046-191300-
   NORTHWEST IOWA

CITY           SKY/WX    TMP DP  RH WIND       PRES   REMARKS
CARROLL *      CLEAR     21  18  86 W8        30.15S WCI  12
DENISON *      CLEAR     21  18  86 CALM      30.18S
LE MARS *      CLEAR     19  16  86 S5        30.15S WCI  13
ORANGE CITY *  CLEAR     19  19 100 W6        30.13R WCI  11
SHELDON *      CLEAR     18  14  86 SW7       30.11S WCI   8
SIOUX CITY     CLEAR     21  17  84 CALM      30.17S
6HR MIN TEMP:  18; 6HR MAX TEMP:  26;

SPENCER        CLEAR     18  14  84 W8        30.13R WCI   8
6HR MIN TEMP:  14; 6HR MAX TEMP:  20;

STORM LAKE *   CLEAR     19  18  93 W9        30.13S WCI   9
$$

IAZ055>058-069>071-079>083-090>094-191300-
   SOUTHWEST IOWA

CITY           SKY/WX    TMP DP  RH WIND       PRES   REMARKS
ATLANTIC *     CLEAR     21  19  93 S5        30.17F WCI  15
AUDUBON *      CLEAR     21  18  86 CALM      30.16S
CLARINDA *     CLEAR     21  19  93 S5        30.23F WCI  15
COUNCIL BLFS * CLEAR     25  23  93 SW7       30.18F WCI  17
CRESTON *      CLEAR     21  18  86 W8        30.18F WCI  12
HARLAN  *      CLEAR     23  21  93 CALM      30.20F
LAMONI         CLEAR     22  17  81 W7        30.18F WCI  13
6HR MIN TEMP:  21; 6HR MAX TEMP:  30;

RED OAK *      CLEAR     19  18  93 S3        30.20F
SHENANDOAH *   CLEAR     23  21  93 S8        30.22F WCI  14
$$

IAZ047>049-059>061-072>074-084-191300-
   CENTRAL IOWA

CITY           SKY/WX    TMP DP  RH WIND       PRES   REMARKS
AMES           CLEAR     19  16  88 W8        30.15F WCI   9
6HR MIN TEMP:  19; 6HR MAX TEMP:  28;

ANKENY *       CLEAR     23  16  74 NW6       30.18F WCI  16
BOONE *        CLEAR     19  16  86 W6        30.13F WCI  11
CHARITON *     CLEAR     25  16  68 NW7       30.17S WCI  17
DES MOINES     PTCLDY    23  15  71 W5        30.17F WCI  17
6HR MIN TEMP:  23; 6HR MAX TEMP:  30;

GRINNELL*      CLEAR     21  16  79 W9        30.15R WCI  11
KNOXVILLE *    CLEAR     23  14  68 NW9       30.16S WCI  13
MARSHALLTOWN   CLEAR     19  15  84 W10       30.12F WCI   7
6HR MIN TEMP:  19; 6HR MAX TEMP:  25;

NEWTON *       CLEAR     23  14  68 NW8G14    30.15F WCI  14
PELLA *        CLEAR     23  17  76 NW8       30.18S WCI  14
$$

IAZ004>006-015-016-023>025-035-036-191300-
   NORTH CENTRAL IOWA

CITY           SKY/WX    TMP DP  RH WIND       PRES   REMARKS
ALGONA *       CLEAR     18  16  93 W7        30.11R WCI   8
CLARION *      CLEAR     16  16 100 W5        30.12S WCI   9
ESTHERVILLE    CLEAR     16  14  92 W7        30.10R WCI   6
6HR MIN TEMP:  14; 6HR MAX TEMP:  20;

FORT DODGE *   CLEAR     17  14  88 SW5       30.13F WCI  10
MASON CITY     CLEAR     17  10  74 W10       30.10F WCI   5
6HR MIN TEMP:  17; 6HR MAX TEMP:  21;

FOREST CITY *    N/A     16  14  93 CALM      30.09S
WEBSTER CITY * CLEAR     18  12  79 W8        30.11S WCI   7
IOWA FALLS *     N/A     20  15  82 W8        30.12F WCI  10
$$

IAZ007>011-017>019-026>030-037>042-050>054-066-191300-
   NORTHEAST IOWA

CITY           SKY/WX    TMP DP  RH WIND       PRES   REMARKS
CEDAR RAPIDS   CLEAR     20  13  74 NW9       30.10S WCI   9
6HR MIN TEMP:  19; 6HR MAX TEMP:  25;

CHARLES CITY * CLEAR     18  12  79 NW8       30.08F WCI   7
CLINTON *      CLEAR     22  17  81 NW14      30.07R WCI   9
DECORAH *      CLEAR     18  12  79 VRB5      30.04S WCI  11
DUBUQUE        CLEAR     20  13  74 NW15      30.04R WCI   6
6HR MIN TEMP:  20; 6HR MAX TEMP:  26;

MONTICELLO *   CLEAR     21  14  73 NW15      30.08R WCI   8
OELWEIN *      CLEAR     19  16  86 NW9       30.08S WCI   9
WATERLOO       CLEAR     18  11  74 NW7       30.10F WCI   9
6HR MIN TEMP:  18; 6HR MAX TEMP:  23;

$$

IAZ064-065-067-068-078-191300-
   EAST CENTRAL IOWA

CITY           SKY/WX    TMP DP  RH WIND       PRES   REMARKS
DAVENPORT      CLEAR     22  16  78 NW12      30.10R WCI  10
6HR MIN TEMP:  22; 6HR MAX TEMP:  28;

IOWA CITY      CLEAR     23  13  65 NW12      30.13S WCI  12
6HR MIN TEMP:  23; 6HR MAX TEMP:  29;

MT. PLEASANT * CLEAR     24  14  66 NW13G18   30.15R WCI  12
MUSCATINE *    CLEAR     23  14  68 NW12G17   30.13R WCI  12
QUAD CITIES    CLEAR     24  15  68 NW16      30.09R WCI  11
6HR MIN TEMP:  24; 6HR MAX TEMP:  30;

$$

IAZ062-063-075>077-085>089-095>099-191300-
   SOUTHEAST IOWA

CITY           SKY/WX    TMP DP  RH WIND       PRES   REMARKS
BURLINGTON     CLEAR     24  16  71 NW12G21   30.13R WCI  13
6HR MIN TEMP:  24; 6HR MAX TEMP:  30;

FAIRFIELD *    CLEAR     23  14  68 NW12G18   30.14R WCI  12
FORT MADISON * CLEAR     25  16  68 NW15      30.14R WCI  12
KEOKUK *       CLEAR     27  14  59 NW13G18   30.15R WCI  16
OTTUMWA        CLEAR     24  14  65 NW17G23   30.16S WCI  11
6HR MIN TEMP:  23; 6HR MAX TEMP:  29;

WASHINGTON *   CLEAR     21  16  79 NW13      30.14S WCI   9
$$

ABBREVIATIONS USED IN REMARKS
   TC - TEMPERATURES IN CELSIUS
  WCI - WIND CHILL INDEX
   HX - HEAT INDEX
  VSB - VISIBILITY
$$




USA.gov is the U.S. government's official web portal to all federal, state and local government web resources and services.